Theta_e
293 294 294 295 295 296 297 299 301 303 305 310 315 318 330 336 336 335 333 333 335 342 345 346 345 344 343 342 341 341 341 341 341 339 338 336 335 334 333 332 331 330 329
292 292 293 294 294 295 296 298 298 300 302 307 311 316 321 335 336 335 333 333 332 336 341 344 345 345 343 343 341 341 340 340 340 339 338 336 335 333 332 331 330 329 329
291 291 293 292 292 294 295 296 295 298 300 302 305 312 317 333 334 334 333 333 333 331 336 340 342 343 343 343 341 341 340 339 339 339 337 336 334 332 332 330 329 329 328
292 291 291 291 293 293 294 294 293 295 297 299 302 306 315 322 334 333 333 331 332 333 329 332 338 340 340 342 342 341 341 340 339 338 337 336 334 332 331 330 329 329 328
291 291 291 291 292 292 293 294 292 294 294 297 299 301 307 316 331 332 331 330 330 330 331 329 331 334 337 339 342 341 341 341 340 339 337 336 334 332 331 330 329 329 328
291 291 291 290 291 291 291 292 292 292 294 296 296 300 306 316 326 330 330 329 329 330 332 332 333 334 331 336 339 341 341 340 340 339 338 336 335 332 330 330 329 329 328
291 290 290 290 290 290 292 292 292 290 291 294 295 297 308 322 325 328 330 328 327 329 331 332 333 334 334 332 336 340 342 339 341 340 338 336 334 332 330 329 329 328 327
290 291 291 290 290 290 292 291 291 287 289 292 291 293 300 313 320 325 326 328 326 327 329 328 331 330 332 336 335 336 339 340 341 340 338 335 334 332 331 329 329 328 327
289 291 292 292 291 291 291 291 290 286 286 290 292 293 292 298 300 321 323 325 329 326 326 327 327 328 330 332 333 332 328 330 337 339 337 335 334 332 331 330 329 328 327
289 289 291 292 293 292 291 291 289 286 287 288 291 294 295 295 295 303 320 323 326 328 328 328 329 329 330 334 332 329 322 320 328 335 337 336 335 333 331 330 329 328 327
288 289 291 292 291 291 292 289 286 286 288 289 289 290 293 294 298 297 298 314 322 325 328 332 329 329 329 331 334 329 320 317 321 329 334 334 334 333 332 330 329 328 328
287 288 289 290 290 289 290 287 286 287 288 289 290 291 291 291 291 294 296 299 306 321 325 329 328 327 329 332 330 323 317 316 317 323 328 331 332 332 332 331 330 329 329
285 286 288 288 289 289 290 286 286 287 288 288 289 290 292 293 294 294 295 298 302 311 322 326 329 332 333 333 331 322 317 313 315 318 323 326 327 328 329 329 329 329 329
285 287 287 288 289 289 288 286 286 287 288 289 289 291 292 293 294 294 295 295 297 304 317 319 327 329 332 333 331 318 326 313 313 315 317 321 322 323 323 325 326 326 327
286 286 287 288 288 290 288 285 286 286 288 289 290 291 291 292 293 294 296 297 296 298 303 317 320 329 330 331 328 328 331 315 312 312 313 315 318 319 319 320 321 321 323
285 285 286 287 286 287 286 285 285 286 287 289 290 290 291 292 292 293 295 296 297 298 298 308 318 325 330 331 326 330 330 315 310 309 310 311 313 316 316 316 317 317 318
285 285 286 285 286 286 285 285 286 287 287 288 289 289 290 291 290 291 292 293 294 296 296 303 310 323 326 330 331 330 329 327 320 307 307 308 309 310 311 312 312 313 314
285 284 285 286 284 286 285 286 285 286 287 287 287 288 288 290 289 290 290 290 292 294 295 296 302 316 321 325 329 329 330 330 327 310 306 306 307 307 308 308 308 309 309
283 283 283 285 284 285 285 286 286 286 286 287 287 287 288 288 288 288 289 289 290 293 293 294 297 306 318 320 318 321 328 330 330 315 306 304 305 306 306 306 307 307 307
282 282 282 282 284 285 285 286 286 285 286 287 288 288 288 288 288 288 288 289 290 290 292 293 297 300 315 317 318 316 315 322 328 329 312 311 308 306 306 305 305 305 306
282 282 281 281 282 284 286 285 285 285 285 286 287 288 288 289 289 288 288 288 289 289 291 293 295 299 312 314 313 316 315 316 318 328 320 316 315 313 310 303 309 305 304
280 281 280 280 282 283 286 286 286 284 285 285 285 286 286 286 287 288 288 288 289 289 289 291 294 297 301 314 316 315 314 313 311 327 323 317 318 315 318 315 309 304 302
280 280 280 280 281 283 285 286 285 284 284 284 284 285 284 285 286 286 287 288 288 289 284 288 290 292 294 298 300 314 314 314 314 317 322 321 317 318 319 319 304 302 301
280 280 280 280 281 282 285 285 284 284 284 284 284 284 284 284 285 285 285 285 286 288 288 289 290 292 294 295 297 302 308 315 316 316 321 316 314 318 322 321 303 302 302
279 279 280 279 281 281 284 284 283 282 282 282 283 283 283 283 284 285 283 283 284 285 288 289 290 290 290 291 291 301 307 311 304 307 317 316 301 303 301 317 318 301 300
280 279 279 279 281 281 283 284 283 281 280 281 282 281 283 283 283 283 282 281 280 282 284 286 288 289 290 291 289 293 295 305 305 297 303 313 296 299 297 295 308 311 308
Wind_Speed
9 8 7 10 9 11 12 12 11 11 11 12 10 9 10 10 11 8 7 16 18 23 25 28 28 27 25 23 21 20 20 19 19 18 16 14 14 17 16 16 17 14 13
9 9 8 9 9 10 11 11 12 10 7 10 11 10 11 9 11 12 9 11 18 21 24 26 26 26 26 24 22 22 21 19 19 18 16 13 12 17 16 17 17 14 13
10 10 9 9 9 10 14 11 12 11 9 10 10 9 10 11 10 13 11 11 12 17 21 23 26 25 26 24 23 22 21 19 19 19 17 15 14 16 17 17 18 15 14
11 8 8 8 10 10 10 10 11 11 10 10 10 8 9 9 11 12 11 11 10 10 14 19 22 24 24 24 25 24 22 21 20 19 18 16 15 17 18 19 17 16 14
11 9 10 11 13 10 9 9 10 11 11 9 9 9 11 6 9 10 13 14 15 12 10 15 16 18 22 24 24 25 25 23 21 21 19 18 17 17 17 18 17 16 15
12 12 10 12 11 10 10 9 12 12 10 11 14 10 9 5 10 10 12 11 14 17 14 13 13 13 19 22 24 24 25 26 25 23 21 20 19 19 19 18 18 16 15
10 12 9 10 11 10 10 11 11 14 10 12 9 8 5 3 9 9 8 9 14 16 14 12 11 10 11 21 22 24 25 26 25 24 22 21 20 19 20 20 19 18 16
11 10 10 8 12 10 9 10 12 12 8 10 6 6 5 2 1 9 11 9 12 11 12 12 13 13 11 10 16 24 25 26 25 25 23 22 21 20 20 21 20 19 18
11 12 13 10 9 8 7 9 10 13 10 11 14 5 5 4 5 4 10 8 10 10 10 12 11 12 12 11 12 18 21 22 25 25 24 23 22 22 21 23 21 21 19
12 12 13 13 11 7 8 8 10 8 8 10 10 9 7 6 5 5 4 9 10 11 15 11 12 12 12 10 16 19 20 17 21 25 25 24 23 23 22 22 21 21 20
10 11 12 12 12 9 9 8 10 10 7 6 7 7 7 8 4 3 4 1 4 5 8 13 12 14 13 11 11 15 20 19 18 22 25 25 24 24 24 23 22 21 20
7 10 12 10 10 9 9 9 8 10 8 9 7 7 5 4 6 4 4 7 8 5 7 7 11 10 12 10 12 17 20 21 20 20 22 25 24 24 24 24 23 22 21
8 10 11 10 9 10 10 10 8 9 9 9 9 7 7 6 5 5 3 5 4 4 4 7 9 11 10 8 8 15 22 22 22 20 21 23 24 23 24 24 23 24 22
7 10 10 11 11 11 10 11 8 8 9 8 11 9 6 7 5 6 4 5 6 1 4 3 5 10 12 13 21 24 17 25 24 22 20 23 23 21 21 21 19 24 22
8 10 12 13 12 10 12 11 9 10 10 8 9 10 7 6 6 5 5 4 6 3 4 4 3 6 12 11 14 15 15 22 24 24 22 21 22 21 21 21 18 18 22
9 10 12 12 11 11 11 13 9 10 11 8 7 10 9 8 7 6 6 6 5 4 4 4 4 2 10 10 11 14 16 19 22 23 24 22 22 22 22 21 20 18 19
9 10 12 10 11 9 11 12 11 11 12 11 10 11 11 11 8 6 6 5 5 5 6 5 5 5 8 11 10 11 11 10 12 19 20 24 23 22 21 20 20 19 19
10 10 11 8 10 11 12 12 12 11 11 12 12 12 12 9 11 10 7 8 6 6 4 9 5 5 1 3 9 12 9 11 10 18 20 20 23 22 22 22 21 20 20
9 10 10 12 10 11 12 12 11 11 11 10 11 11 11 12 11 9 8 7 6 5 5 6 6 4 1 1 2 2 5 10 10 15 21 20 22 24 23 22 23 21 21
9 10 10 10 11 10 12 13 12 11 11 10 10 10 11 11 13 12 9 9 8 7 6 6 6 5 5 2 2 2 2 3 8 9 11 16 20 21 22 21 20 21 21
9 10 10 10 11 10 11 15 12 11 11 12 10 10 11 16 21 18 9 10 8 5 5 5 6 3 5 4 5 3 1 3 3 7 7 8 9 11 12 14 19 21 21
10 10 11 10 11 9 24 24 17 10 11 11 12 12 12 15 18 21 19 17 12 7 6 4 4 6 10 3 4 4 3 4 3 5 9 8 9 10 12 12 23 21 24
9 10 11 11 12 11 25 25 21 10 10 11 11 10 11 11 17 15 17 16 14 11 5 6 7 6 7 8 6 4 7 4 3 1 9 8 8 9 10 11 19 24 24
9 9 10 11 12 10 24 25 20 11 10 11 12 12 14 14 16 17 14 13 12 10 11 8 7 7 8 8 7 5 3 5 3 1 2 3 5 8 8 10 19 24 25
9 10 10 11 12 13 25 24 18 11 11 11 11 12 15 14 23 25 14 14 13 12 12 15 10 9 12 10 11 5 3 5 2 3 5 2 0 2 2 7 8 21 23
7 8 9 11 15 13 23 25 20 9 12 9 11 13 21 19 25 24 13 13 14 14 13 12 11 12 10 10 12 8 6 4 3 1 2 5 2 3 2 2 4 6 9
Wind_Direction
346 338 333 354 352 348 339 329 330 323 315 314 305 306 272 209 194 178 182 190 192 187 188 180 177 173 169 167 166 163 163 171 162 163 162 168 167 147 145 142 134 139 141
344 341 325 351 346 347 343 332 330 321 314 313 297 304 305 219 203 188 178 192 193 190 186 185 179 177 174 172 169 167 169 177 164 169 165 165 155 145 141 142 139 145 148
346 343 353 351 334 345 346 343 332 329 342 294 314 305 301 238 210 191 173 177 192 194 187 185 181 180 177 177 172 170 173 170 171 172 166 165 158 152 149 146 147 151 154
340 341 349 339 335 341 343 346 337 327 325 327 312 303 279 297 213 198 179 177 179 186 182 178 181 179 180 178 177 174 177 173 175 174 168 166 160 157 157 151 150 155 158
335 342 352 346 345 341 343 340 342 340 325 321 308 292 267 290 231 200 187 182 180 179 183 196 185 176 181 176 182 180 187 179 178 176 171 169 164 158 154 149 155 161 161
349 350 348 347 344 344 343 340 341 347 329 323 310 288 254 249 274 210 194 183 182 186 185 187 182 184 177 173 181 183 189 189 186 180 176 172 169 165 160 159 159 165 166
341 346 347 344 346 346 334 341 342 348 342 335 322 336 261 195 255 216 200 183 188 185 181 175 174 176 176 174 180 183 189 195 190 185 178 176 174 172 167 166 163 165 171
329 333 336 334 348 342 337 344 348 345 338 341 326 285 306 201 29 223 213 188 190 185 186 183 172 174 170 180 186 183 190 195 189 187 179 180 176 175 175 167 167 169 171
336 330 331 335 325 338 336 343 1 352 333 339 341 2 342 340 2 215 204 210 192 186 193 173 171 171 179 186 186 185 185 196 189 187 180 182 180 179 179 171 174 172 171
335 334 332 334 337 337 343 359 360 343 335 342 342 357 322 311 7 301 183 202 203 188 186 187 175 173 178 179 190 193 182 191 188 185 183 182 184 182 181 181 176 172 176
337 338 341 339 348 351 351 2 353 340 335 336 338 339 325 310 283 275 310 200 181 211 189 181 185 184 181 189 184 193 181 187 188 182 181 184 186 185 186 185 176 179 181
336 341 342 341 342 343 344 0 352 334 337 337 336 333 348 337 337 344 354 340 315 211 200 188 180 174 193 184 190 192 182 187 183 183 183 182 188 188 189 191 179 184 182
339 335 338 339 339 338 346 356 353 336 340 334 332 333 342 339 342 331 321 288 287 319 203 196 184 175 189 176 193 198 184 190 184 181 181 182 187 190 190 195 186 183 184
331 333 336 346 338 338 350 354 350 333 341 335 331 333 343 341 337 334 315 327 286 327 290 215 163 184 181 182 192 198 193 190 188 185 181 183 184 188 188 192 193 184 185
339 341 352 355 348 1 357 352 345 334 342 337 330 342 345 356 330 317 317 270 295 329 309 204 158 187 174 181 186 186 192 197 192 189 185 184 185 187 190 190 190 189 182
343 347 1 358 355 1 2 359 341 336 343 338 347 347 354 351 353 337 342 337 319 306 278 332 5 238 181 181 182 183 193 182 193 192 189 183 188 189 192 194 194 189 188
349 354 1 357 353 6 353 353 345 347 342 346 355 349 354 356 355 358 343 334 322 314 298 304 283 259 205 182 182 194 185 191 194 199 196 188 187 188 191 194 194 193 190
352 354 357 357 1 359 344 346 345 345 348 352 351 351 357 350 358 353 342 333 319 311 300 295 288 275 222 198 183 191 178 197 191 195 200 199 193 191 191 192 194 194 192
351 354 360 3 360 349 348 349 349 349 349 349 348 354 353 352 353 346 339 329 317 301 294 276 289 302 239 174 112 141 186 190 199 181 198 201 201 197 194 195 195 196 196
356 356 360 1 352 347 353 356 356 354 348 351 348 351 348 358 352 344 337 334 326 308 297 281 273 274 242 156 153 170 135 62 208 193 193 203 204 206 202 195 195 198 198
358 357 360 4 352 352 359 5 359 350 353 353 354 355 351 359 358 351 340 341 323 304 282 281 278 283 246 151 185 170 141 107 296 217 177 194 195 197 203 203 212 202 200
358 359 5 6 359 352 4 11 8 356 354 354 357 0 355 359 355 354 347 341 337 349 339 335 331 328 303 193 147 161 134 168 180 227 189 199 189 196 204 203 207 204 201
357 359 3 6 7 357 7 10 8 359 360 360 1 356 357 0 1 354 352 349 355 359 353 328 318 314 319 7 326 198 179 167 199 243 280 186 183 205 197 205 195 195 198
360 359 0 5 10 3 8 10 10 1 2 5 6 358 360 359 2 3 355 354 354 355 355 348 328 317 299 315 312 288 303 197 135 141 307 255 163 210 197 207 187 197 202
359 2 1 3 2 8 9 12 14 5 2 6 10 4 5 4 5 8 3 356 358 359 351 354 349 341 348 345 347 283 266 189 184 194 179 258 22 243 214 202 201 196 197
1 359 0 0 357 6 8 12 18 7 7 2 6 10 7 12 13 15 9 4 2 353 349 354 358 10 4 2 6 14 358 289 143 42 278 189 129 173 269 227 212 184 203